When you browse on this site, cookies collect data to enhance your experience and personalize the content and advertising you see.
Visit our Privacy Policy to learn more. By continuing to use the site, you agree to this use of cookies and data.

Hourly Weather La-Plata

Today, 8 August, Saturday

Time Temperature Precipitation Wind Pressure Humidity
00:00 +10°C° 0 mm 5 mps 766 mmHg 95%
01:00 +10°C° 0 mm 5 mps 766 mmHg 95%
02:00 +12°C° 0 mm 4 mps 766 mmHg 95%
03:00 +12°C° 0 mm 4 mps 766 mmHg 95%
04:00 +12°C° 0 mm 4 mps 765 mmHg 96%
05:00 +12°C° 0 mm 3 mps 765 mmHg 96%
06:00 +12°C° 0 mm 3 mps 765 mmHg 96%
07:00 +13°C° 0 mm 4 mps 765 mmHg 96%
08:00 +13°C° 0 mm 4 mps 765 mmHg 95%
09:00 +14°C° 0 mm 4 mps 765 mmHg 92%
10:00 +15°C° 0 mm 4 mps 764 mmHg 90%
11:00 +17°C° 0 mm 4 mps 764 mmHg 87%
12:00 +18°C° 0 mm 4 mps 763 mmHg 85%
13:00 +18°C° 0 mm 3 mps 763 mmHg 84%
14:00 +19°C° 0 mm 3 mps 762 mmHg 83%
15:00 +18°C° 0 mm 2 mps 762 mmHg 86%
16:00 +18°C° 0 mm 2 mps 761 mmHg 88%
17:00 +18°C° 0 mm 2 mps 761 mmHg 91%
18:00 +17°C° 0 mm 2 mps 761 mmHg 93%
19:00 +17°C° 0 mm 2 mps 761 mmHg 94%
20:00 +17°C° 0 mm 2 mps 761 mmHg 95%
21:00 +17°C° 0 mm 3 mps 761 mmHg 95%
22:00 +17°C° 0 mm 3 mps 761 mmHg 95%
23:00 +17°C° 0 mm 3 mps 761 mmHg 96%

Tomorrow, 9 August, Sunday

Time Temperature Precipitation Wind Pressure Humidity
00:00 +16°C° 0.1 mm 3 mps 761 mmHg 96%
01:00 +16°C° 0.1 mm 2 mps 761 mmHg 96%
02:00 +16°C° 0.1 mm 2 mps 761 mmHg 96%
03:00 +16°C° 0.1 mm 1 mps 761 mmHg 96%
04:00 +15°C° 0.1 mm 1 mps 761 mmHg 96%
05:00 +15°C° 0.1 mm 1 mps 760 mmHg 96%
06:00 +15°C° 0 mm 1 mps 761 mmHg 95%
07:00 +16°C° 0 mm 1 mps 761 mmHg 94%
08:00 +16°C° 0 mm 1 mps 761 mmHg 92%
09:00 +19°C° 0 mm 1 mps 761 mmHg 87%
10:00 +19°C° 0 mm 2 mps 760 mmHg 82%
11:00 +20°C° 0 mm 2 mps 760 mmHg 77%
12:00 +20°C° 0 mm 2 mps 759 mmHg 81%
13:00 +19°C° 0 mm 3 mps 759 mmHg 84%
14:00 +19°C° 0 mm 3 mps 758 mmHg 87%
15:00 +18°C° 0 mm 3 mps 757 mmHg 90%
16:00 +18°C° 0 mm 3 mps 757 mmHg 92%
17:00 +17°C° 0 mm 3 mps 756 mmHg 94%
18:00 +17°C° 0.1 mm 3 mps 756 mmHg 94%
19:00 +17°C° 0.1 mm 3 mps 756 mmHg 94%
20:00 +17°C° 0.1 mm 2 mps 755 mmHg 94%
21:00 +17°C° 0.1 mm 2 mps 755 mmHg 93%
22:00 +17°C° 0.1 mm 2 mps 755 mmHg 92%
23:00 +17°C° 0.1 mm 2 mps 754 mmHg 91%

Day after tomorrow, 10 August, Monday

Time Temperature Precipitation Wind Pressure Humidity
00:00 +17°C° 0.2 mm 2 mps 754 mmHg 92%
01:00 +17°C° 0.2 mm 3 mps 753 mmHg 93%
02:00 +17°C° 0.2 mm 3 mps 753 mmHg 94%
03:00 +16°C° 0.1 mm 3 mps 753 mmHg 95%
04:00 +16°C° 0.1 mm 3 mps 753 mmHg 95%
05:00 +14°C° 0.1 mm 3 mps 753 mmHg 96%
06:00 +16°C° 0.1 mm 3 mps 753 mmHg 95%
07:00 +15°C° 0.1 mm 4 mps 754 mmHg 94%
08:00 +15°C° 0.1 mm 4 mps 754 mmHg 93%
09:00 +16°C° 0 mm 5 mps 754 mmHg 85%
10:00 +17°C° 0 mm 5 mps 755 mmHg 77%
11:00 +17°C° 0 mm 6 mps 755 mmHg 69%
12:00 +19°C° 0 mm 6 mps 755 mmHg 65%
13:00 +19°C° 0 mm 6 mps 755 mmHg 60%
14:00 +18°C° 0 mm 7 mps 755 mmHg 56%
15:00 +16°C° 0 mm 7 mps 755 mmHg 54%
16:00 +15°C° 0 mm 7 mps 756 mmHg 52%
17:00 +12°C° 0 mm 7 mps 756 mmHg 50%
18:00 +11°C° 0 mm 8 mps 757 mmHg 45%
19:00 +10°C° 0 mm 9 mps 759 mmHg 40%
20:00 +8°C° 0 mm 10 mps 760 mmHg 34%
21:00 +6°C° 0 mm 9 mps 761 mmHg 37%
22:00 +5°C° 0 mm 8 mps 761 mmHg 41%
23:00 +4°C° 0 mm 8 mps 762 mmHg 44%

11 August, Tuesday

Time Temperature Precipitation Wind Pressure Humidity
00:00 +4°C° 0 mm 7 mps 762 mmHg 43%
01:00 +3°C° 0 mm 6 mps 762 mmHg 41%
02:00 +2°C° 0 mm 6 mps 762 mmHg 40%
03:00 +2°C° 0 mm 6 mps 762 mmHg 41%
04:00 +2°C° 0 mm 5 mps 762 mmHg 42%
05:00 +1°C° 0 mm 5 mps 763 mmHg 42%
06:00 +2°C° 0 mm 5 mps 763 mmHg 42%
07:00 +2°C° 0 mm 5 mps 763 mmHg 41%
08:00 +3°C° 0 mm 5 mps 763 mmHg 41%
09:00 +5°C° 0 mm 5 mps 763 mmHg 40%
10:00 +7°C° 0 mm 6 mps 763 mmHg 39%
11:00 +8°C° 0 mm 6 mps 763 mmHg 38%
12:00 +9°C° 0 mm 6 mps 763 mmHg 38%
13:00 +9°C° 0 mm 6 mps 763 mmHg 39%
14:00 +10°C° 0 mm 5 mps 762 mmHg 40%
15:00 +9°C° 0 mm 5 mps 762 mmHg 44%
16:00 +8°C° 0 mm 4 mps 762 mmHg 49%
17:00 +7°C° 0 mm 4 mps 761 mmHg 54%
18:00 +8°C° 0 mm 3 mps 762 mmHg 54%
19:00 +7°C° 0 mm 3 mps 762 mmHg 54%
20:00 +6°C° 0 mm 2 mps 762 mmHg 54%
21:00 +6°C° 0 mm 2 mps 762 mmHg 54%
22:00 +6°C° 0 mm 2 mps 762 mmHg 55%
23:00 +6°C° 0 mm 1 mps 763 mmHg 55%

12 August, Wednesday

Time Temperature Precipitation Wind Pressure Humidity
00:00 +6°C° 0 mm 1 mps 762 mmHg 55%
01:00 +6°C° 0 mm 1 mps 762 mmHg 55%
02:00 +6°C° 0 mm 1 mps 762 mmHg 55%
03:00 +6°C° 0 mm 1 mps 762 mmHg 56%
04:00 +5°C° 0 mm 1 mps 762 mmHg 57%
05:00 +4°C° 0 mm 0 mps 762 mmHg 57%
06:00 +5°C° 0 mm 0 mps 762 mmHg 56%
07:00 +6°C° 0 mm 0 mps 762 mmHg 54%
08:00 +7°C° 0 mm 0 mps 762 mmHg 53%
09:00 +10°C° 0 mm 1 mps 762 mmHg 50%
10:00 +10°C° 0 mm 2 mps 762 mmHg 47%
11:00 +13°C° 0 mm 2 mps 762 mmHg 44%
12:00 +13°C° 0 mm 2 mps 762 mmHg 45%
13:00 +13°C° 0 mm 2 mps 761 mmHg 45%
14:00 +13°C° 0 mm 2 mps 760 mmHg 45%
15:00 +12°C° 0 mm 2 mps 760 mmHg 48%
16:00 +10°C° 0 mm 2 mps 760 mmHg 51%
17:00 +9°C° 0 mm 2 mps 760 mmHg 54%
18:00 +9°C° 0 mm 2 mps 760 mmHg 55%
19:00 +8°C° 0 mm 2 mps 760 mmHg 56%
20:00 +8°C° 0 mm 2 mps 760 mmHg 58%
21:00 +7°C° 0 mm 2 mps 760 mmHg 62%
22:00 +7°C° 0 mm 2 mps 760 mmHg 66%
23:00 +7°C° 0 mm 2 mps 760 mmHg 70%

13 August, Thursday

Time Temperature Precipitation Wind Pressure Humidity
00:00 +8°C° 0 mm 1 mps 760 mmHg 72%
01:00 +7°C° 0 mm 1 mps 760 mmHg 74%
02:00 +7°C° 0 mm 1 mps 760 mmHg 76%
03:00 +7°C° 0 mm 1 mps 760 mmHg 77%
04:00 +7°C° 0 mm 1 mps 760 mmHg 77%
05:00 +6°C° 0 mm 1 mps 759 mmHg 78%
06:00 +6°C° 0 mm 0 mps 760 mmHg 76%
07:00 +7°C° 0 mm 0 mps 760 mmHg 74%
08:00 +8°C° 0 mm 0 mps 760 mmHg 71%
09:00 +10°C° 0 mm 0 mps 760 mmHg 65%
10:00 +12°C° 0 mm 1 mps 760 mmHg 58%
11:00 +14°C° 0 mm 1 mps 759 mmHg 51%
12:00 +14°C° 0 mm 1 mps 759 mmHg 49%
13:00 +15°C° 0 mm 1 mps 758 mmHg 47%
14:00 +15°C° 0 mm 2 mps 757 mmHg 46%
15:00 +14°C° 0 mm 2 mps 757 mmHg 50%
16:00 +13°C° 0 mm 2 mps 757 mmHg 55%
17:00 +10°C° 0 mm 2 mps 757 mmHg 59%
18:00 +10°C° 0 mm 2 mps 757 mmHg 60%
19:00 +9°C° 0 mm 2 mps 757 mmHg 61%
20:00 +8°C° 0 mm 2 mps 758 mmHg 62%
21:00 +8°C° 0 mm 2 mps 758 mmHg 63%
22:00 +8°C° 0 mm 2 mps 757 mmHg 65%
23:00 +8°C° 0 mm 3 mps 757 mmHg 67%
Show more